Location: Aubervilles
(48.9167°N, 2.3833°E)
Time: 20:48:53
(UTC+00:00)

Cosmos 1850 Rocket - Pass Details

Date: 03 February 2023
Orbit: 753 x 784 km, 74.0° (Epoch: 21 March)

Event Time Altitude Azimuth Distance (km) Brightness Sun altitude
Rises 18:23:19 0° 177° (S) 3,203 7.3 -15.4°
Reaches altitude 10° 18:25:49 10° 170° (S) 2,279 6.4 -15.8°
Maximum altitude 18:30:32 38° 103° (ESE) 1,148 4.4 -16.6°
Enters shadow 18:32:53 25° 55° (NE) 1,507 5.0 -17.0°
